Location: Champs
(48.8539°N, 2.6040°E)
Time: 17:24:26
(UTC+00:00)

THORAD AGENA D DEB - Visible Passes

Search period start: 11 August 2022 00:00
Search period end: 21 August 2022 00:00
Orbit: 677 x 783 km, 98.6° (Epoch: 21 July)

Date Brightness Start Highest point End Pass type
(mag) Time Alt. Az. Time Alt. Az. Time Alt. Az.
11 Aug ? 19:43:52 10° ESE 19:47:18 20° ENE 19:50:48 10° NNE visible
11 Aug ? 21:22:19 24° S 21:25:05 62° WSW 21:29:53 10° NNW visible
12 Aug ? 20:34:34 18° SE 20:37:52 51° ENE 20:42:33 10° N visible
12 Aug ? 22:14:00 15° SW 22:16:26 22° W 22:20:10 10° NW visible
13 Aug ? 19:47:24 10° ESE 19:50:58 22° ENE 19:54:37 10° N visible
13 Aug ? 21:26:14 26° S 21:28:49 58° WSW 21:33:36 10° NNW visible
14 Aug ? 20:38:27 20° SE 20:41:32 55° ENE 20:46:18 10° N visible
14 Aug ? 22:17:54 15° SW 22:20:09 21° W 22:23:47 10° NW visible
15 Aug ? 19:50:54 10° ESE 19:54:36 23° ENE 19:58:24 10° N visible
15 Aug ? 21:30:06 27° SSW 21:32:29 54° W 21:37:17 10° NNW visible
16 Aug ? 20:42:19 23° SE 20:45:10 59° ENE 20:50:00 10° N visible
16 Aug ? 22:21:46 15° WSW 22:23:50 20° W 22:27:21 10° NW visible
17 Aug ? 19:54:30 11° ESE 19:58:12 25° ENE 20:02:08 10° N visible
17 Aug ? 21:33:57 29° SSW 21:36:08 50° W 21:40:55 10° NNW visible
18 Aug ? 20:46:08 26° SE 20:48:46 63° ENE 20:53:39 10° N visible
18 Aug ? 22:25:34 15° WSW 22:27:28 19° W 22:30:53 10° NW visible
19 Aug ? 19:58:18 12° ESE 20:01:45 26° ENE 20:05:49 10° N visible
19 Aug ? 21:37:45 30° SSW 21:39:44 47° W 21:44:30 10° NNW visible
20 Aug ? 20:49:55 29° SE 20:52:20 67° ENE 20:57:16 10° N visible
20 Aug ? 22:29:21 15° WSW 22:31:05 18° W 22:34:21 10° NW visible
